Location: ????????
(60.4333°N, 46.4710°E)
Time: 18:47:21
(UTC+00:00)

YAOGAN 6 - Pass Details

Date: 25 November 2020
Orbit: 465 x 502 km, 97.0° (Epoch: 17 January)

Event Time Altitude Azimuth Distance (km) Brightness Sun altitude
Rises 13:01:04 0° 144° (SE) 2,581 6.2 -6.6°
Reaches altitude 10° 13:03:12 10° 138° (SE) 1,697 5.2 -6.8°
Maximum altitude 13:06:40 43° 66° (ENE) 708 2.9 -7.2°
Drops below altitude 10° 13:10:07 10° 354° (N) 1,689 5.1 -7.6°
Sets 13:12:15 0° 348° (NNW) 2,568 6.1 -7.8°
